Location: Capelle
(50.3413°N, 1.9974°E)
Time: 07:00:37
(UTC+00:00)

COSMO-SKYMED 1 - Pass Details

Date: 12 January 2026
Orbit: 577 x 579 km, 97.9° (Epoch: 18 February)

Event Time Altitude Azimuth Distance (km) Brightness Sun altitude
Exits shadow 17:10:12 12° 62° (ENE) 1,803 4.3 -8.9°
Maximum altitude 17:11:58 14° 89° (E) 1,637 4.2 -9.1°
Drops below altitude 10° 17:14:12 10° 122° (ESE) 1,893 4.7 -9.4°
Sets 17:17:15 0° 148° (SSE) 2,784 5.8 -9.9°
